User: anonymous   Login
Location: Key Biscayne
(25.6930°N, 80.1630°W)
Time: 08:50:21
(UTC-05:00)
Language:

Tiangong 2 - Orbit

View from above orbital plane
View from above orbital plane
View from above satellite
View from above satellite

Ground track
Ground track

The orbit data is extracted from the following two-line orbital elements,

1 41765U 16057A   18017.86345373  .00004158  00000-0  54308-4 0  9990
2 41765  42.7816 158.7332 0004617 290.4813 207.3420 15.60134826 76497
Epoch (UTC): 17 January 2018 20:43:22
Eccentricity: 0.0004617
inclination: 42.7816°
perigee height: 384 km
apogee height: 390 km
right ascension of ascending node: 158.7332°
argument of perigee: 290.4813°
revolutions per day: 15.60134826
mean anomaly at epoch: 207.3420°
orbit number at epoch: 7649

The dashed part of the orbit path shows where the satellite is in the earth's shadow,  

DLR